COSMOS 886 DEB, 9955

Orbit data source: Space-Track

COSMOS 886 DEB, 9955 is space debris in LEO originally from a launch on Mon, 27 Dec 1976 UTC launched from the Tyuratam Missile And Space Complex (TTMTR). Debris objects in space refer to the collection of defunct objects orbiting the Earth. Examples of debris include non-operational satellites, rocket bodies, and fragments generated from explosions, collisions, or faulty payload assembly.

Loading next visibility...
Identifier
9955, 1976-126AV
Orbit
LEO
Country
Flag of CISCIS
Related business
Manufacturer
Unknown
Mission
Spacecraft
Bus & Motor
Unknown
Mass
Unknown
Launch date (UTC)
1976-12-27 (49 years ago)
Launch vehicle
Unknown
Launch site
Tyuratam Missile And Space Complex (TTMTR)
Object type
Payload
Rocket body
Debris
Shape & HBR
Unknown shape, 0.1 m
Radar Cross Section
Small (<0.1 m²)

Expand to show TLE details & history
Last TLE update: 23 hours ago

TLE from 23 hours ago
0 COSMOS 886 DEB
1 09955U 76126AV  26129.51112470  .00000028  00000-0  51956-4 0  9991
2 09955  65.8424 174.1625 1066522 183.5014 175.8080 12.64043873984344
Epoch: 2026-05-09T12:16Z
TLE epoch observation values (Epoch: 2026-05-09T12:16:01.174Z)
Latitude
-0.00001°
Longitude
122.83009°
Altitude
2,236.686 km
Speed
6.432 km/s
True Right ascension
11h 36m 38s
True Declination
0° 00' 00"
Sunlit
Object was in daylight at epoch
Visualization orbit readout
Latitude
Unknown
Longitude
Unknown
Altitude
Unknown
Speed
Unknown
Apparent Right ascension
Unknown
Apparent Declination
Unknown
Sunlit
N/A
Visualization observer readout
Local Sidereal Time
19:46:10
Azimuth
Unknown
Elevation
Unknown
Doppler factor
Unknown
Orbital elements
Apogee altitude
2,234.946 km
Perigee altitude
574.796 km
Semi-major axis
7,783.008 km
Eccentricity
0.10665
Inclination
65.8424°
RAAN
174.1625°
Arg. of periapsis
183.5014°
True anomaly
176.59611°
Mean anomaly
175.808°
Eccentric anomaly
176.21173°
Mean motion
3.16098 °/min
Orbital period
113.89 mins
BSTAR
0.000051956
Loading maneuver chart data...
Computing Atmospheric mass density...
Loading historical data...
Loading historical data...
Loading historical data...
Loading historical data...
Loading historical data...
Loading historical data...
Loading historical data...

Documentation

Showing up to 5 results
|